Vertical_Velocity
4 1 -0 -0 1 3 1 -2 -1 -2 -1 -2 -2 1 2 1 -1 -1 -2 1 -2 -4 -0 0 -2 -1 -1 -0 2 -0 -1 3 -3 -2 0 0 -1 -2 -1 -1 1 2 0
-4 -4 -5 -5 -3 1 1 0 2 -0 1 1 -1 0 -1 1 -0 -2 -2 1 -2 -1 -3 -3 -1 0 -1 -1 0 1 3 -1 -1 -0 -0 -1 0 1 -0 -1 -1 1 1
-3 0 -0 1 -3 -3 -2 -2 -0 0 -1 1 2 0 1 0 -0 -1 -0 -2 -4 -3 -1 -4 -3 -3 -2 -3 -2 -1 -1 -2 -3 -0 -1 -1 -2 -2 1 0 -3 0 1
0 1 2 -3 -1 -2 1 1 1 -1 0 -1 1 -0 1 -0 -0 2 -1 -1 -0 -1 0 0 -3 -4 -4 -4 -2 0 -0 -3 -2 -1 1 1 -1 -1 -2 1 0 -0 -0
-3 -1 -2 -1 1 0 -0 1 -0 2 -0 1 -3 -2 -1 0 2 1 -1 -1 0 0 1 0 -1 -0 -1 -3 -2 -0 -2 0 0 -0 -2 0 0 -0 -1 -2 -1 -2 0
0 -0 -4 -3 -1 -2 -2 -0 2 -0 0 -2 0 -1 -1 -1 -1 -2 -0 -1 -0 2 -0 3 1 1 -1 1 -0 0 -1 -1 -0 -1 0 -0 0 1 -0 -0 -2 -2 1
-1 -1 -1 1 2 2 -2 -2 0 0 1 -2 -1 -2 0 0 -0 -4 -2 -3 -4 -2 -0 -1 -2 -1 -2 1 1 -0 -2 -2 -1 1 -1 0 -2 -3 0 1 1 -1 -2
4 -0 1 0 1 1 -0 3 2 1 1 0 0 2 3 -2 3 4 3 -2 -1 1 -2 -2 -1 -2 -1 -1 -1 1 1 1 -1 -3 -3 -2 -2 0 -2 1 1 1 1
4 2 1 -2 1 3 -0 -1 -0 -1 -2 -1 -1 -1 -0 0 -1 -2 -4 -4 1 0 -1 -0 -1 -2 -5 -4 2 3 0 -1 -0 0 -1 -2 -3 -3 -3 -0 -1 0 1
-2 -3 -6 -7 -1 -2 -4 1 -1 1 1 0 3 1 4 1 3 2 1 0 -2 -5 -1 1 2 -1 -1 -12 6 5 -0 1 0 -2 4 1 0 0 -2 -1 -2 -4 -0
-3 -2 -3 -2 0 -3 -1 -3 -2 -3 -1 -1 2 2 0 0 -4 -4 -1 2 1 5 2 1 -1 -1 -0 -7 -3 12 -0 -2 0 -1 -0 -3 2 1 1 0 0 0 -2
4 -0 -0 -0 1 2 3 3 3 1 0 -1 0 0 1 3 1 1 -0 -3 -1 -1 -1 1 1 0 -2 -10 -1 15 0 -2 -1 -1 1 -1 -1 1 -0 1 1 -0 2
2 -1 -1 1 3 1 -2 -0 -1 -3 -4 -1 1 3 3 3 2 -0 0 1 3 1 -1 0 -1 2 -3 -10 2 5 6 1 -4 1 -3 -0 -1 3 1 1 1 1 2
0 2 2 -2 1 1 3 4 4 3 2 2 1 3 3 3 2 0 2 4 2 2 0 -1 1 1 -5 -6 -2 5 6 4 3 -2 2 1 -3 -1 -2 1 1 1 1
0 -3 -0 1 3 3 2 0 -0 0 -1 -2 -2 -1 5 2 2 2 0 1 2 7 1 -1 -0 1 -2 -4 -2 -2 3 3 1 2 0 -0 -1 2 0 1 -1 -0 -1
-2 -2 -2 4 2 5 1 -0 -1 1 1 -2 -3 -1 0 2 7 1 1 -4 -1 -1 6 -0 -2 2 -2 -2 -3 -2 1 5 4 1 2 -0 1 2 2 -1 -1 1 1
1 -0 1 -3 4 3 1 4 5 3 5 3 0 -6 -4 3 1 3 7 5 1 0 1 1 -1 1 0 1 -2 -7 -1 1 1 2 2 0 1 -3 1 3 1 -1 0
4 2 0 1 -8 -3 0 1 3 4 2 6 3 3 -2 -5 -6 -0 10 8 0 2 0 6 1 -1 -0 3 -0 -3 -7 -1 2 2 -3 -0 -0 0 -1 -2 -0 2 0
1 -3 4 -1 -6 -4 -0 0 3 4 2 1 4 5 2 0 4 0 -0 5 6 5 2 1 4 1 2 -5 1 1 1 -2 0 4 2 -0 -2 -1 2 -0 -0 2 2
0 -1 5 10 3 -3 -0 2 4 1 -1 -0 -2 -0 -10 -6 1 2 3 6 2 -2 -1 5 6 -2 3 -2 -5 -2 1 1 4 4 5 5 2 0 0 -2 -1 2 -2
10 5 3 0 0 -2 -1 -0 -1 -1 3 5 3 5 1 3 9 2 6 6 3 2 5 1 1 3 6 4 0 -4 -0 -4 -0 3 7 7 2 -2 -1 2 -0 0 -1
-7 -6 -4 0 -2 -3 3 -2 -3 -5 -5 -1 -0 1 5 4 3 1 2 4 4 -0 5 5 2 1 -3 3 -4 -3 -9 -5 2 4 6 4 -5 -2 -2 1 -1 0 -2
-1 -0 -3 -7 -4 -4 -5 -5 -2 -1 -1 -2 -4 -3 1 5 7 5 2 5 6 -0 5 7 6 2 2 4 22 1 -9 -1 7 -3 3 12 6 -9 -3 6 -5 21 -5
-2 1 2 4 7 5 4 -1 -4 -2 -1 -1 3 -1 -6 -2 4 4 3 1 -2 -0 2 2 -2 3 3 4 -4 13 -4 -3 6 7 -3 -4 3 14 -5 3 -1 -11 -1
-6 -2 0 5 1 1 -1 -3 -4 -3 -4 -2 -4 -1 -4 -5 0 3 2 4 2 1 9 3 8 2 3 2 1 2 0 -2 -14 1 2 2 4 3 5 7 -9 14 -4
3 0 1 2 -1 -2 -2 -5 -7 -8 -10 -6 -8 1 3 1 1 -4 -2 -2 -1 3 2 0 -2 5 0 5 5 -1 3 0 3 -7 -6 11 6 -10 2 4 12 22 9
Height
5869 5868 5868 5868 5867 5867 5867 5867 5866 5865 5865 5864 5863 5862 5861 5860 5859 5857 5855 5853 5852 5850 5848 5846 5843 5842 5841 5840 5839 5837 5836 5834 5833 5832 5832 5832 5832 5830 5830 5830 5831 5832 5832
5868 5867 5866 5866 5865 5865 5866 5865 5865 5864 5863 5862 5861 5861 5860 5858 5857 5855 5854 5852 5850 5849 5847 5845 5842 5840 5839 5838 5836 5835 5834 5832 5830 5830 5829 5829 5829 5829 5829 5828 5828 5830 5831
5866 5866 5866 5865 5864 5864 5864 5863 5863 5862 5861 5861 5860 5859 5858 5856 5855 5853 5851 5850 5848 5846 5845 5842 5841 5838 5837 5837 5835 5834 5832 5830 5828 5827 5826 5826 5827 5827 5827 5826 5825 5826 5827
5865 5865 5864 5863 5862 5862 5861 5861 5860 5860 5859 5858 5857 5856 5855 5853 5852 5850 5849 5848 5846 5844 5842 5840 5838 5837 5836 5834 5834 5833 5831 5828 5826 5825 5824 5823 5823 5824 5824 5823 5823 5823 5824
5862 5863 5861 5860 5859 5859 5858 5858 5857 5857 5856 5856 5855 5854 5852 5850 5849 5847 5846 5845 5843 5842 5841 5839 5836 5834 5833 5832 5832 5832 5830 5828 5826 5824 5822 5822 5821 5820 5820 5820 5820 5820 5821
5860 5860 5860 5858 5858 5857 5856 5855 5855 5855 5854 5854 5852 5851 5850 5850 5848 5846 5844 5843 5841 5840 5839 5836 5834 5832 5831 5830 5830 5829 5828 5827 5826 5823 5822 5821 5820 5818 5817 5817 5817 5817 5818
5857 5857 5856 5855 5855 5855 5854 5853 5852 5851 5850 5849 5849 5848 5847 5847 5846 5844 5843 5841 5840 5838 5836 5834 5832 5829 5827 5826 5826 5826 5825 5824 5823 5822 5821 5820 5818 5816 5816 5816 5815 5814 5814
5854 5854 5855 5854 5855 5854 5852 5851 5849 5848 5848 5847 5846 5845 5844 5843 5842 5841 5840 5838 5837 5835 5834 5832 5829 5827 5825 5824 5822 5822 5822 5821 5819 5819 5819 5818 5816 5815 5814 5814 5812 5811 5811
5854 5855 5855 5854 5852 5852 5851 5849 5849 5846 5845 5843 5842 5841 5841 5841 5840 5838 5837 5835 5832 5832 5831 5829 5827 5824 5822 5819 5818 5819 5818 5817 5816 5815 5817 5815 5813 5812 5811 5811 5810 5809 5809
5853 5852 5852 5851 5849 5849 5848 5847 5846 5845 5844 5842 5840 5838 5836 5835 5833 5831 5831 5830 5829 5828 5827 5824 5822 5820 5818 5816 5816 5816 5816 5814 5813 5812 5813 5812 5811 5810 5809 5808 5807 5806 5806
5849 5849 5848 5847 5847 5846 5845 5844 5843 5842 5841 5839 5838 5836 5835 5834 5831 5829 5826 5824 5823 5822 5821 5819 5818 5816 5814 5811 5811 5815 5813 5810 5808 5806 5808 5809 5808 5808 5807 5805 5804 5804 5804
5847 5846 5845 5844 5843 5842 5841 5840 5839 5838 5836 5834 5832 5830 5829 5828 5827 5825 5823 5820 5817 5816 5815 5814 5812 5810 5808 5806 5805 5809 5810 5808 5805 5803 5802 5803 5803 5803 5803 5802 5801 5801 5801
5843 5843 5841 5840 5840 5839 5838 5837 5835 5833 5831 5828 5825 5823 5822 5820 5818 5817 5816 5814 5813 5811 5809 5807 5806 5805 5802 5801 5801 5800 5804 5804 5803 5800 5799 5799 5798 5798 5798 5797 5797 5797 5796
5840 5839 5840 5838 5836 5835 5833 5831 5829 5826 5824 5822 5820 5817 5816 5814 5812 5809 5807 5806 5805 5804 5803 5801 5799 5799 5796 5795 5795 5795 5795 5797 5797 5796 5794 5793 5792 5793 5792 5792 5792 5792 5792
5833 5835 5836 5832 5830 5828 5826 5823 5821 5818 5816 5814 5812 5810 5808 5806 5803 5801 5800 5798 5796 5795 5794 5794 5793 5791 5789 5788 5788 5787 5787 5787 5788 5788 5788 5787 5785 5786 5786 5786 5786 5786 5786
5833 5829 5825 5825 5825 5823 5821 5819 5815 5812 5809 5807 5804 5802 5801 5799 5796 5794 5792 5790 5788 5785 5784 5784 5784 5782 5781 5780 5780 5779 5779 5780 5780 5779 5779 5779 5779 5777 5778 5778 5778 5778 5778
5826 5823 5820 5818 5817 5816 5813 5810 5806 5803 5800 5797 5794 5792 5789 5788 5787 5785 5782 5781 5779 5777 5775 5775 5774 5773 5772 5771 5770 5770 5770 5771 5772 5772 5771 5771 5771 5770 5770 5770 5771 5771 5771
5819 5816 5813 5812 5809 5806 5803 5801 5798 5796 5794 5790 5786 5783 5780 5777 5775 5773 5771 5770 5768 5767 5765 5764 5762 5762 5761 5761 5760 5760 5760 5760 5761 5763 5764 5763 5762 5762 5762 5761 5762 5763 5763
5809 5806 5805 5805 5802 5798 5794 5791 5789 5786 5784 5781 5777 5774 5771 5767 5764 5761 5760 5758 5756 5755 5754 5752 5752 5751 5749 5748 5749 5748 5749 5750 5750 5751 5753 5753 5753 5752 5752 5752 5752 5752 5753
5803 5800 5798 5796 5795 5791 5788 5784 5780 5777 5773 5769 5765 5762 5759 5755 5751 5749 5747 5746 5744 5742 5741 5738 5739 5738 5738 5737 5737 5737 5737 5738 5740 5740 5740 5741 5741 5741 5741 5741 5741 5742 5742
5793 5790 5786 5783 5781 5779 5778 5776 5771 5767 5763 5759 5754 5750 5746 5741 5738 5735 5733 5731 5730 5729 5729 5726 5724 5724 5726 5725 5725 5726 5727 5726 5727 5729 5728 5729 5730 5730 5729 5729 5729 5731 5730
5785 5781 5779 5776 5773 5771 5767 5762 5757 5751 5746 5742 5739 5736 5733 5729 5726 5722 5719 5718 5717 5716 5715 5714 5713 5712 5712 5711 5712 5714 5713 5714 5714 5716 5717 5718 5719 5719 5719 5717 5718 5719 5720
5778 5775 5771 5767 5763 5760 5757 5751 5745 5739 5733 5728 5726 5722 5717 5714 5711 5709 5706 5705 5705 5704 5703 5702 5701 5700 5698 5698 5699 5696 5696 5699 5699 5699 5703 5706 5706 5706 5708 5706 5706 5707 5707
5772 5767 5763 5760 5755 5751 5745 5737 5732 5725 5720 5717 5711 5706 5702 5699 5696 5694 5691 5689 5688 5689 5690 5689 5688 5688 5685 5684 5681 5683 5679 5680 5678 5683 5685 5684 5690 5692 5694 5694 5692 5693 5695
5759 5757 5753 5748 5743 5737 5731 5724 5718 5712 5708 5702 5697 5691 5688 5685 5681 5680 5678 5675 5674 5674 5675 5675 5674 5673 5672 5670 5669 5667 5666 5665 5663 5662 5667 5670 5673 5677 5682 5683 5680 5679 5682
5748 5744 5740 5735 5730 5724 5718 5711 5704 5697 5690 5687 5682 5678 5674 5671 5668 5665 5663 5662 5662 5662 5660 5658 5656 5655 5652 5650 5649 5648 5647 5647 5648 5648 5647 5650 5655 5659 5663 5665 5667 5664 5667